Terminal Aerodrome Forecast
Issued by NWS

Home | Current Version | Previous Version | Text Only | Print | Product List | Glossary On
Versions: 1 2 3 4 5 6 7 8 9 10 11 12 13 14 15 16 17 18
000
FTUS41 KPBZ 071131
TAFHLG
TAF
KHLG 071131Z 0712/0812 19004KT 5SM BR SCT050
     FM071500 22012KT P6SM BKN050
     FM080000 23008KT 4SM TSRA OVC035CB=

USA.gov is the U.S. government's official web portal to all federal, state and local government web resources and services.